Time,TemperatureF,DewpointF,PressureIn,WindDirection,WindDirectionDegrees,WindSpeedMPH,WindSpeedGustMPH,Humidity,HourlyPrecipIn,Conditions,Clouds,dailyrainin,SoftwareType,DateUTC
2013-07-07 00:01:00,73.5,71.4,30.01,NW,314,0.0,0.0,93,0.00,,,0.00,WeatherDisplay:10.37,2013-07-07 04:01:00,
2013-07-07 00:02:00,73.5,71.4,30.01,NW,314,0.0,0.0,93,0.00,,,0.00,WeatherDisplay:10.37,2013-07-07 04:02:00,
2013-07-07 00:03:00,73.5,71.4,30.01,NW,314,0.0,0.0,93,0.00,,,0.00,WeatherDisplay:10.37,2013-07-07 04:03:00,
2013-07-07 00:08:00,73.5,71.4,30.01,NW,314,0.0,0.0,93,0.00,,,0.00,WeatherDisplay:10.37,2013-07-07 04:08:00,
2013-07-07 00:13:00,73.4,71.3,30.01,NW,314,0.0,0.0,93,0.00,,,0.00,WeatherDisplay:10.37,2013-07-07 04:13:00,
2013-07-07 00:18:00,73.3,71.5,30.00,NW,314,0.0,0.0,94,0.00,,,0.00,WeatherDisplay:10.37,2013-07-07 04:18:00,
2013-07-07 00:23:00,73.3,71.5,30.00,NW,314,0.0,0.0,94,0.00,,,0.00,WeatherDisplay:10.37,2013-07-07 04:23:00,
2013-07-07 00:29:00,73.3,71.5,30.00,NW,314,0.0,0.0,94,0.00,,,0.00,WeatherDisplay:10.37,2013-07-07 04:29:00,
2013-07-07 00:34:00,73.4,71.6,30.00,NW,314,0.0,0.0,94,0.00,,,0.00,WeatherDisplay:10.37,2013-07-07 04:34:00,
2013-07-07 00:39:00,73.4,71.6,30.00,NW,314,0.0,0.0,94,0.00,,,0.00,WeatherDisplay:10.37,2013-07-07 04:39:00,
2013-07-07 00:44:00,73.4,71.6,30.00,NW,314,0.0,0.0,94,0.00,,,0.00,WeatherDisplay:10.37,2013-07-07 04:44:00,
2013-07-07 00:49:00,73.4,71.9,30.00,NW,314,0.0,0.0,95,0.00,,,0.00,WeatherDisplay:10.37,2013-07-07 04:49:00,
2013-07-07 00:55:00,73.4,71.9,30.00,NW,314,0.0,0.0,95,0.00,,,0.00,WeatherDisplay:10.37,2013-07-07 04:55:00,
2013-07-07 01:00:00,73.4,71.9,30.00,NW,314,0.0,0.0,95,0.00,,,0.00,WeatherDisplay:10.37,2013-07-07 05:00:00,
2013-07-07 01:05:00,73.4,71.9,30.00,NW,314,0.0,0.0,95,0.00,,,0.00,WeatherDisplay:10.37,2013-07-07 05:05:00,
2013-07-07 01:10:00,73.4,71.9,30.00,NW,314,0.0,0.0,95,0.00,,,0.00,WeatherDisplay:10.37,2013-07-07 05:10:00,
2013-07-07 01:15:00,73.3,71.8,30.00,NW,314,0.0,0.0,95,0.00,,,0.00,WeatherDisplay:10.37,2013-07-07 05:15:00,
2013-07-07 01:21:00,73.3,71.8,30.00,NW,314,0.0,0.0,95,0.00,,,0.00,WeatherDisplay:10.37,2013-07-07 05:21:00,
2013-07-07 01:26:00,73.2,71.7,30.00,NW,314,0.0,0.0,95,0.00,,,0.00,WeatherDisplay:10.37,2013-07-07 05:26:00,
2013-07-07 01:31:00,73.2,71.7,30.00,NW,314,0.0,0.0,95,0.00,,,0.00,WeatherDisplay:10.37,2013-07-07 05:31:00,
2013-07-07 01:36:00,73.1,71.6,29.99,NW,314,0.0,0.0,95,0.00,,,0.00,WeatherDisplay:10.37,2013-07-07 05:36:00,
2013-07-07 01:42:00,73.1,71.9,29.99,NW,314,0.0,0.0,96,0.00,,,0.00,WeatherDisplay:10.37,2013-07-07 05:42:00,
2013-07-07 01:47:00,73.0,71.8,29.98,NW,314,0.0,0.0,96,0.00,,,0.00,WeatherDisplay:10.37,2013-07-07 05:47:00,
2013-07-07 01:52:00,73.0,71.8,29.98,NW,314,0.0,0.0,96,0.00,,,0.00,WeatherDisplay:10.37,2013-07-07 05:52:00,
2013-07-07 01:57:00,73.0,71.8,29.98,NW,314,0.0,0.0,96,0.00,,,0.00,WeatherDisplay:10.37,2013-07-07 05:57:00,
2013-07-07 02:02:00,72.9,71.7,29.98,NW,314,0.0,0.0,96,0.00,CLR,,0.00,WeatherDisplay:10.37,2013-07-07 06:02:00,
2013-07-07 02:07:00,73.0,71.8,29.98,NW,314,0.0,0.0,96,0.00,CLR,,0.00,WeatherDisplay:10.37,2013-07-07 06:07:00,
2013-07-07 02:12:00,72.9,71.7,29.98,NW,314,0.0,0.0,96,0.00,CLR,,0.00,WeatherDisplay:10.37,2013-07-07 06:12:00,
2013-07-07 02:18:00,72.9,71.7,29.98,NW,314,0.0,0.0,96,0.00,CLR,,0.00,WeatherDisplay:10.37,2013-07-07 06:18:00,
2013-07-07 02:23:00,72.9,71.7,29.98,NW,314,0.0,0.0,96,0.00,CLR,,0.00,WeatherDisplay:10.37,2013-07-07 06:23:00,
2013-07-07 02:28:00,72.9,71.7,29.98,NW,314,0.0,0.0,96,0.00,CLR,,0.00,WeatherDisplay:10.37,2013-07-07 06:28:00,
2013-07-07 02:33:00,72.7,71.5,29.98,NW,314,0.0,0.0,96,0.00,CLR,,0.00,WeatherDisplay:10.37,2013-07-07 06:33:00,
2013-07-07 02:38:00,72.5,71.6,29.98,NW,314,0.0,0.0,97,0.00,CLR,,0.00,WeatherDisplay:10.37,2013-07-07 06:38:00,
2013-07-07 02:44:00,72.5,71.6,29.98,NW,314,0.0,0.0,97,0.00,CLR,,0.00,WeatherDisplay:10.37,2013-07-07 06:44:00,
2013-07-07 02:49:00,72.5,71.6,29.98,NW,314,0.0,0.0,97,0.00,CLR,,0.00,WeatherDisplay:10.37,2013-07-07 06:49:00,
2013-07-07 02:54:00,72.6,71.7,29.98,NW,314,0.0,0.0,97,0.00,CLR,,0.00,WeatherDisplay:10.37,2013-07-07 06:54:00,
2013-07-07 02:59:00,72.5,71.6,29.98,NW,314,0.0,0.0,97,0.00,CLR,,0.00,WeatherDisplay:10.37,2013-07-07 06:59:00,
2013-07-07 03:01:00,72.4,71.5,29.98,NW,314,0.0,0.0,97,0.00,CLR,,0.00,WeatherDisplay:10.37,2013-07-07 07:01:00,
2013-07-07 03:06:00,72.2,71.3,29.99,NW,314,0.0,0.0,97,0.00,CLR,,0.00,WeatherDisplay:10.37,2013-07-07 07:06:00,
2013-07-07 03:11:00,72.2,71.3,29.99,NW,314,0.0,0.0,97,0.00,CLR,,0.00,WeatherDisplay:10.37,2013-07-07 07:11:00,
2013-07-07 03:16:00,72.3,71.4,29.99,NW,314,0.0,0.0,97,0.02,RA,,0.02,WeatherDisplay:10.37,2013-07-07 07:16:00,
2013-07-07 03:21:00,72.4,71.8,30.00,NW,314,0.0,0.0,98,0.05,RA,,0.05,WeatherDisplay:10.37,2013-07-07 07:21:00,
2013-07-07 03:27:00,72.3,71.4,30.01,NW,314,0.0,0.0,97,0.06,RA,,0.07,WeatherDisplay:10.37,2013-07-07 07:27:00,
2013-07-07 03:32:00,72.3,71.7,30.01,NW,314,0.0,0.0,98,0.07,RA,,0.07,WeatherDisplay:10.37,2013-07-07 07:32:00,
2013-07-07 03:37:00,72.3,71.7,30.01,NW,314,0.0,0.0,98,0.08,RA,,0.08,WeatherDisplay:10.37,2013-07-07 07:37:00,
2013-07-07 03:42:00,72.4,71.8,30.01,NW,314,0.0,0.0,98,0.08,RA,,0.08,WeatherDisplay:10.37,2013-07-07 07:42:00,
2013-07-07 03:47:00,72.4,71.8,30.00,NW,314,0.0,0.0,98,0.08,CLR,,0.08,WeatherDisplay:10.37,2013-07-07 07:47:00,
2013-07-07 03:53:00,72.4,71.8,30.00,NW,314,0.0,0.0,98,0.08,CLR,,0.08,WeatherDisplay:10.37,2013-07-07 07:53:00,
2013-07-07 03:58:00,72.2,71.6,30.00,NW,314,0.0,0.0,98,0.08,CLR,,0.08,WeatherDisplay:10.37,2013-07-07 07:58:00,
2013-07-07 04:03:00,72.0,71.4,30.00,NW,314,0.0,0.0,98,0.08,CLR,,0.08,WeatherDisplay:10.37,2013-07-07 08:03:00,
2013-07-07 04:08:00,71.8,71.2,30.00,NW,314,0.0,0.0,98,0.08,CLR,,0.08,WeatherDisplay:10.37,2013-07-07 08:08:00,
2013-07-07 04:13:00,71.6,71.0,30.00,NW,314,0.0,0.0,98,0.08,CLR,,0.08,WeatherDisplay:10.37,2013-07-07 08:13:00,
2013-07-07 04:18:00,71.5,70.9,29.99,NW,314,0.0,0.0,98,0.05,CLR,,0.08,WeatherDisplay:10.37,2013-07-07 08:18:00,
2013-07-07 04:24:00,71.4,70.8,29.99,NW,314,0.0,0.0,98,0.03,CLR,,0.08,WeatherDisplay:10.37,2013-07-07 08:24:00,
2013-07-07 04:29:00,71.3,70.7,29.99,NW,314,0.0,0.0,98,0.01,CLR,,0.08,WeatherDisplay:10.37,2013-07-07 08:29:00,
2013-07-07 04:34:00,71.3,70.7,29.98,NW,314,0.0,0.0,98,0.00,CLR,,0.08,WeatherDisplay:10.37,2013-07-07 08:34:00,
2013-07-07 04:39:00,71.1,70.5,29.98,NW,314,0.0,0.0,98,0.00,CLR,,0.08,WeatherDisplay:10.37,2013-07-07 08:39:00,
2013-07-07 04:44:00,71.0,70.4,29.98,NW,314,0.0,0.0,98,0.00,CLR,,0.08,WeatherDisplay:10.37,2013-07-07 08:44:00,
2013-07-07 04:49:00,71.0,70.4,29.98,NW,314,0.0,0.0,98,0.00,CLR,,0.08,WeatherDisplay:10.37,2013-07-07 08:49:00,
2013-07-07 04:54:00,70.9,70.3,29.98,NW,314,0.0,0.0,98,0.00,CLR,,0.08,WeatherDisplay:10.37,2013-07-07 08:54:00,
2013-07-07 05:00:00,70.8,70.2,29.98,NW,314,0.0,0.0,98,0.00,CLR,,0.08,WeatherDisplay:10.37,2013-07-07 09:00:00,
2013-07-07 05:05:00,70.7,70.1,29.98,NW,314,0.0,0.0,98,0.00,CLR,,0.08,WeatherDisplay:10.37,2013-07-07 09:05:00,
2013-07-07 05:10:00,70.7,70.1,29.98,NW,314,0.0,0.0,98,0.01,RA,,0.09,WeatherDisplay:10.37,2013-07-07 09:10:00,
2013-07-07 05:15:00,70.6,70.0,29.97,NW,314,0.0,0.0,98,0.01,RA,,0.09,WeatherDisplay:10.37,2013-07-07 09:15:00,
2013-07-07 05:20:00,70.6,70.0,29.97,NW,314,0.0,0.0,98,0.01,CLR,,0.09,WeatherDisplay:10.37,2013-07-07 09:20:00,
2013-07-07 05:25:00,70.5,69.9,29.97,NW,314,0.0,0.0,98,0.01,CLR,,0.09,WeatherDisplay:10.37,2013-07-07 09:25:00,
2013-07-07 05:31:00,70.5,69.9,29.97,NW,314,0.0,0.0,98,0.01,CLR,,0.09,WeatherDisplay:10.37,2013-07-07 09:31:00,
2013-07-07 05:36:00,70.4,69.8,29.97,NW,314,0.0,0.0,98,0.01,CLR,,0.09,WeatherDisplay:10.37,2013-07-07 09:36:00,
2013-07-07 05:41:00,70.3,69.7,29.97,NW,314,0.0,0.0,98,0.01,CLR,,0.09,WeatherDisplay:10.37,2013-07-07 09:41:00,
2013-07-07 05:46:00,70.3,69.7,29.97,NW,314,0.0,0.0,98,0.01,CLR,,0.09,WeatherDisplay:10.37,2013-07-07 09:46:00,
2013-07-07 05:51:00,70.2,69.6,29.97,NW,314,0.0,0.0,98,0.01,CLR,,0.09,WeatherDisplay:10.37,2013-07-07 09:51:00,
2013-07-07 05:57:00,70.2,69.6,29.97,NW,314,0.0,0.0,98,0.01,CLR,,0.09,WeatherDisplay:10.37,2013-07-07 09:57:00,
2013-07-07 06:02:00,70.2,69.6,29.97,NW,314,0.0,0.0,98,0.01,CLR,,0.09,WeatherDisplay:10.37,2013-07-07 10:02:00,
2013-07-07 06:07:00,70.2,69.6,29.97,NW,314,0.0,0.0,98,0.01,CLR,,0.09,WeatherDisplay:10.37,2013-07-07 10:07:00,
2013-07-07 06:12:00,70.2,69.6,29.98,NW,314,0.0,0.0,98,0.00,CLR,,0.09,WeatherDisplay:10.37,2013-07-07 10:12:00,
2013-07-07 06:17:00,70.1,69.5,29.98,NW,314,0.0,0.0,98,0.00,CLR,,0.09,WeatherDisplay:10.37,2013-07-07 10:17:00,
2013-07-07 06:22:00,70.1,69.5,29.98,NW,314,0.0,0.0,98,0.00,CLR,,0.09,WeatherDisplay:10.37,2013-07-07 10:22:00,
2013-07-07 06:28:00,70.1,69.5,29.98,NW,314,0.0,0.0,98,0.00,CLR,,0.09,WeatherDisplay:10.37,2013-07-07 10:28:00,
2013-07-07 06:33:00,70.2,69.6,29.98,NW,314,0.0,0.0,98,0.00,CLR,,0.09,WeatherDisplay:10.37,2013-07-07 10:33:00,
2013-07-07 06:38:00,70.3,69.7,29.98,NW,314,0.0,0.0,98,0.00,CLR,,0.09,WeatherDisplay:10.37,2013-07-07 10:38:00,
2013-07-07 06:43:00,70.3,69.7,29.98,NW,314,0.0,0.0,98,0.00,CLR,,0.09,WeatherDisplay:10.37,2013-07-07 10:43:00,
2013-07-07 06:48:00,70.4,69.8,29.98,NW,314,0.0,0.0,98,0.00,CLR,,0.09,WeatherDisplay:10.37,2013-07-07 10:48:00,
2013-07-07 06:53:00,70.5,70.2,29.98,NW,314,0.0,0.0,99,0.00,CLR,,0.09,WeatherDisplay:10.37,2013-07-07 10:53:00,
2013-07-07 06:58:00,70.6,70.3,29.98,NW,314,0.0,0.0,99,0.00,CLR,,0.09,WeatherDisplay:10.37,2013-07-07 10:58:00,
2013-07-07 07:04:00,70.7,70.4,29.98,NW,314,0.0,0.0,99,0.00,CLR,,0.09,WeatherDisplay:10.37,2013-07-07 11:04:00,
2013-07-07 07:09:00,70.8,70.5,29.98,NW,314,0.0,0.0,99,0.00,CLR,,0.09,WeatherDisplay:10.37,2013-07-07 11:09:00,
2013-07-07 07:14:00,70.8,70.5,29.98,NW,314,0.0,0.0,99,0.00,CLR,,0.09,WeatherDisplay:10.37,2013-07-07 11:14:00,
2013-07-07 07:19:00,71.0,70.7,29.98,NW,314,0.0,0.0,99,0.00,CLR,,0.09,WeatherDisplay:10.37,2013-07-07 11:19:00,
2013-07-07 07:25:00,71.0,70.7,29.98,NW,314,0.0,0.0,99,0.00,CLR,,0.09,WeatherDisplay:10.37,2013-07-07 11:25:00,
2013-07-07 07:30:00,71.1,70.8,29.98,NW,314,0.0,0.0,99,0.00,CLR,,0.09,WeatherDisplay:10.37,2013-07-07 11:30:00,
2013-07-07 07:35:00,71.1,70.8,29.98,NW,314,0.0,0.0,99,0.00,CLR,,0.09,WeatherDisplay:10.37,2013-07-07 11:35:00,
2013-07-07 07:40:00,71.3,71.0,29.98,NW,314,0.0,0.0,99,0.00,CLR,,0.09,WeatherDisplay:10.37,2013-07-07 11:40:00,
2013-07-07 07:45:00,71.3,71.0,29.98,NW,314,0.0,0.0,99,0.00,CLR,,0.09,WeatherDisplay:10.37,2013-07-07 11:45:00,
2013-07-07 07:51:00,71.6,71.3,29.98,NW,314,0.0,0.0,99,0.00,CLR,,0.09,WeatherDisplay:10.37,2013-07-07 11:51:00,
2013-07-07 07:56:00,71.8,71.5,29.98,NW,314,0.0,0.0,99,0.00,CLR,,0.09,WeatherDisplay:10.37,2013-07-07 11:56:00,
2013-07-07 08:01:00,72.1,71.8,29.99,NW,314,0.0,0.0,99,0.00,CLR,,0.09,WeatherDisplay:10.37,2013-07-07 12:01:00,
2013-07-07 08:06:00,72.4,72.1,29.99,NW,314,0.0,0.0,99,0.00,CLR,,0.09,WeatherDisplay:10.37,2013-07-07 12:06:00,
2013-07-07 08:11:00,72.4,72.1,29.99,NW,314,0.0,0.0,99,0.00,CLR,,0.09,WeatherDisplay:10.37,2013-07-07 12:11:00,
2013-07-07 08:16:00,72.6,72.3,29.99,NW,314,0.0,0.0,99,0.00,CLR,,0.09,WeatherDisplay:10.37,2013-07-07 12:16:00,
2013-07-07 08:22:00,72.7,72.4,29.99,NW,314,0.0,0.0,99,0.00,CLR,,0.09,WeatherDisplay:10.37,2013-07-07 12:22:00,
2013-07-07 08:27:00,73.0,72.7,29.99,NW,314,0.0,0.0,99,0.00,CLR,,0.09,WeatherDisplay:10.37,2013-07-07 12:27:00,
2013-07-07 08:32:00,73.1,72.8,29.99,NW,314,0.0,0.0,99,0.00,CLR,,0.09,WeatherDisplay:10.37,2013-07-07 12:32:00,
2013-07-07 08:37:00,73.3,73.0,29.99,NW,314,0.0,0.0,99,0.00,CLR,,0.09,WeatherDisplay:10.37,2013-07-07 12:37:00,
2013-07-07 08:42:00,73.4,73.1,29.99,NW,314,0.0,0.0,99,0.00,CLR,,0.09,WeatherDisplay:10.37,2013-07-07 12:42:00,
2013-07-07 08:47:00,73.4,73.1,29.99,NW,314,0.0,0.0,99,0.00,CLR,,0.09,WeatherDisplay:10.37,2013-07-07 12:47:00,
2013-07-07 08:52:00,73.5,73.2,29.99,NW,314,0.0,0.0,99,0.00,CLR,,0.09,WeatherDisplay:10.37,2013-07-07 12:52:00,
2013-07-07 08:57:00,73.7,73.4,29.99,NW,314,0.0,0.0,99,0.00,CLR,,0.09,WeatherDisplay:10.37,2013-07-07 12:57:00,
2013-07-07 09:02:00,73.9,73.6,29.99,NW,308,0.0,0.0,99,0.00,CLR,,0.09,WeatherDisplay:10.37,2013-07-07 13:02:00,
2013-07-07 09:08:00,74.1,73.8,29.99,NW,308,0.0,0.0,99,0.00,CLR,,0.09,WeatherDisplay:10.37,2013-07-07 13:08:00,
2013-07-07 09:13:00,74.2,73.9,29.98,NW,307,0.0,0.0,99,0.00,CLR,,0.09,WeatherDisplay:10.37,2013-07-07 13:13:00,
2013-07-07 09:18:00,74.2,73.9,29.98,NW,307,0.0,1.1,99,0.00,CLR,,0.09,WeatherDisplay:10.37,2013-07-07 13:18:00,
2013-07-07 09:23:00,74.4,74.1,29.98,West,259,0.8,2.3,99,0.00,CLR,,0.09,WeatherDisplay:10.37,2013-07-07 13:23:00,
2013-07-07 09:28:00,74.4,73.8,29.98,SW,229,1.1,2.3,98,0.00,CLR,,0.09,WeatherDisplay:10.37,2013-07-07 13:28:00,
2013-07-07 09:33:00,74.7,73.8,29.98,SW,217,0.4,1.1,97,0.00,CLR,,0.09,WeatherDisplay:10.37,2013-07-07 13:33:00,
2013-07-07 09:39:00,74.9,73.7,29.98,West,267,0.0,1.1,96,0.00,CLR,,0.09,WeatherDisplay:10.37,2013-07-07 13:39:00,
2013-07-07 09:44:00,75.2,73.7,29.98,SW,225,1.5,3.5,95,0.00,CLR,,0.09,WeatherDisplay:10.37,2013-07-07 13:44:00,
2013-07-07 09:49:00,75.6,73.8,29.98,SW,225,0.0,0.0,94,0.00,CLR,,0.09,WeatherDisplay:10.37,2013-07-07 13:49:00,
2013-07-07 09:54:00,75.8,73.6,29.98,SW,215,0.2,1.1,93,0.00,CLR,,0.09,WeatherDisplay:10.37,2013-07-07 13:54:00,
2013-07-07 09:59:00,76.0,73.5,29.98,WSW,256,0.0,1.1,92,0.00,CLR,,0.09,WeatherDisplay:10.37,2013-07-07 13:59:00,
2013-07-07 10:05:00,76.3,73.8,29.98,WSW,257,0.0,0.0,92,0.00,CLR,,0.09,WeatherDisplay:10.37,2013-07-07 14:05:00,
2013-07-07 10:10:00,76.4,73.9,29.98,SW,236,0.4,2.3,92,0.00,CLR,,0.09,WeatherDisplay:10.37,2013-07-07 14:10:00,
2013-07-07 10:15:00,76.4,72.9,29.98,SW,221,0.8,2.3,89,0.00,CLR,,0.09,WeatherDisplay:10.37,2013-07-07 14:15:00,
2013-07-07 10:20:00,76.4,72.6,29.98,SW,236,0.7,1.1,88,0.00,CLR,,0.09,WeatherDisplay:10.37,2013-07-07 14:20:00,
2013-07-07 10:25:00,76.4,72.2,29.98,WSW,239,0.0,0.0,87,0.00,CLR,,0.09,WeatherDisplay:10.37,2013-07-07 14:25:00,
2013-07-07 10:30:00,76.5,72.3,29.98,WSW,238,0.0,0.0,87,0.00,CLR,,0.09,WeatherDisplay:10.37,2013-07-07 14:30:00,
2013-07-07 10:35:00,76.8,73.0,29.98,WSW,239,0.0,1.1,88,0.00,CLR,,0.09,WeatherDisplay:10.37,2013-07-07 14:35:00,
2013-07-07 10:40:00,77.0,72.5,29.98,WSW,249,0.3,5.8,86,0.00,CLR,,0.09,WeatherDisplay:10.37,2013-07-07 14:40:00,
2013-07-07 10:45:00,77.2,71.6,29.98,SW,216,0.5,1.1,83,0.00,CLR,,0.09,WeatherDisplay:10.37,2013-07-07 14:45:00,
2013-07-07 10:51:00,77.3,71.4,29.98,SW,219,0.3,4.0,82,0.00,CLR,,0.09,WeatherDisplay:10.37,2013-07-07 14:51:00,
2013-07-07 10:56:00,77.3,71.0,29.98,WSW,241,0.9,2.3,81,0.00,CLR,,0.09,WeatherDisplay:10.37,2013-07-07 14:56:00,
2013-07-07 11:01:00,77.7,71.4,29.98,SSW,212,1.2,2.3,81,0.00,CLR,,0.09,WeatherDisplay:10.37,2013-07-07 15:01:00,
2013-07-07 11:06:00,78.2,71.5,29.98,West,260,1.1,3.5,80,0.00,CLR,,0.09,WeatherDisplay:10.37,2013-07-07 15:06:00,
2013-07-07 11:11:00,78.7,72.4,29.98,West,259,0.2,1.1,81,0.00,CLR,,0.09,WeatherDisplay:10.37,2013-07-07 15:11:00,
2013-07-07 11:16:00,78.8,70.2,29.98,WSW,250,0.1,5.8,75,0.00,CLR,,0.09,WeatherDisplay:10.37,2013-07-07 15:16:00,
2013-07-07 11:21:00,79.3,70.7,29.98,SW,231,0.3,4.6,75,0.00,CLR,,0.09,WeatherDisplay:10.37,2013-07-07 15:21:00,
2013-07-07 11:26:00,79.5,70.1,29.98,SW,218,2.8,4.0,73,0.00,CLR,,0.09,WeatherDisplay:10.37,2013-07-07 15:26:00,
2013-07-07 11:32:00,79.1,69.3,29.98,South,180,0.5,3.5,72,0.00,CLR,,0.09,WeatherDisplay:10.37,2013-07-07 15:32:00,
2013-07-07 11:37:00,79.3,70.3,29.97,SSW,205,0.5,1.1,74,0.00,CLR,,0.09,WeatherDisplay:10.37,2013-07-07 15:37:00,
2013-07-07 11:42:00,79.7,70.7,29.97,SSW,211,0.8,2.0,74,0.00,CLR,,0.09,WeatherDisplay:10.37,2013-07-07 15:42:00,
2013-07-07 11:47:00,80.2,69.9,29.97,SW,227,0.3,3.5,71,0.00,CLR,,0.09,WeatherDisplay:10.37,2013-07-07 15:47:00,
2013-07-07 11:52:00,80.6,71.1,29.97,SSW,198,1.3,4.0,73,0.00,CLR,,0.09,WeatherDisplay:10.37,2013-07-07 15:52:00,
2013-07-07 11:57:00,80.7,70.8,29.97,West,259,0.2,3.5,72,0.00,CLR,,0.09,WeatherDisplay:10.37,2013-07-07 15:57:00,
2013-07-07 12:03:00,80.2,70.8,29.97,SSW,200,0.6,3.5,73,0.00,CLR,,0.09,WeatherDisplay:10.37,2013-07-07 16:03:00,
2013-07-07 12:08:00,80.1,70.3,29.97,WSW,251,0.0,1.1,72,0.00,CLR,,0.09,WeatherDisplay:10.37,2013-07-07 16:08:00,
2013-07-07 12:13:00,80.4,71.7,29.97,South,169,0.1,1.1,75,0.00,CLR,,0.09,WeatherDisplay:10.37,2013-07-07 16:13:00,
2013-07-07 12:18:00,80.4,70.9,29.97,SW,232,0.1,1.1,73,0.00,CLR,,0.09,WeatherDisplay:10.37,2013-07-07 16:18:00,
2013-07-07 12:23:00,80.6,71.1,29.97,SSW,209,0.1,1.0,73,0.00,CLR,,0.09,WeatherDisplay:10.37,2013-07-07 16:23:00,
2013-07-07 12:28:00,80.7,70.8,29.97,SSE,150,0.1,2.3,72,0.00,CLR,,0.09,WeatherDisplay:10.37,2013-07-07 16:28:00,
2013-07-07 12:34:00,80.5,71.0,29.97,SW,216,1.1,3.5,73,0.00,CLR,,0.09,WeatherDisplay:10.37,2013-07-07 16:34:00,
2013-07-07 12:39:00,80.1,70.7,29.97,WSW,257,0.5,4.6,73,0.00,CLR,,0.09,WeatherDisplay:10.37,2013-07-07 16:39:00,
2013-07-07 12:44:00,80.0,71.4,29.97,SW,236,0.0,0.0,75,0.00,CLR,,0.09,WeatherDisplay:10.37,2013-07-07 16:44:00,
2013-07-07 12:49:00,80.3,70.9,29.97,SW,214,1.5,2.3,73,0.00,CLR,,0.09,WeatherDisplay:10.37,2013-07-07 16:49:00,
2013-07-07 12:54:00,80.7,70.0,29.97,South,191,1.1,3.5,70,0.00,CLR,,0.09,WeatherDisplay:10.37,2013-07-07 16:54:00,
2013-07-07 13:00:00,81.0,70.3,29.97,SW,217,0.0,2.3,70,0.00,CLR,,0.09,WeatherDisplay:10.37,2013-07-07 17:00:00,
2013-07-07 13:05:00,81.3,70.6,29.97,WSW,245,0.3,1.1,70,0.00,CLR,,0.09,WeatherDisplay:10.37,2013-07-07 17:05:00,
2013-07-07 13:10:00,81.6,70.4,29.96,WSW,240,2.1,3.5,69,0.00,CLR,,0.09,WeatherDisplay:10.37,2013-07-07 17:10:00,
2013-07-07 13:15:00,82.0,70.0,29.96,West,263,4.3,6.9,67,0.00,CLR,,0.09,WeatherDisplay:10.37,2013-07-07 17:15:00,
2013-07-07 13:20:00,82.1,70.5,29.96,SW,236,0.9,5.0,68,0.00,CLR,,0.09,WeatherDisplay:10.37,2013-07-07 17:20:00,
2013-07-07 13:25:00,82.2,70.6,29.96,SW,226,1.1,3.5,68,0.00,CLR,,0.09,WeatherDisplay:10.37,2013-07-07 17:25:00,
2013-07-07 13:30:00,82.1,70.1,29.96,South,186,1.3,3.5,67,0.00,CLR,,0.09,WeatherDisplay:10.37,2013-07-07 17:30:00,
2013-07-07 13:35:00,81.8,69.8,29.96,SW,221,2.0,4.6,67,0.00,CLR,,0.09,WeatherDisplay:10.37,2013-07-07 17:35:00,
2013-07-07 13:40:00,81.4,69.8,29.96,SW,225,0.6,1.1,68,0.00,CLR,,0.09,WeatherDisplay:10.37,2013-07-07 17:40:00,
2013-07-07 13:45:00,81.3,70.2,29.95,SSW,195,1.9,2.3,69,0.00,CLR,,0.09,WeatherDisplay:10.37,2013-07-07 17:45:00,
2013-07-07 13:51:00,81.3,69.7,29.95,SW,217,0.3,6.9,68,0.00,CLR,,0.09,WeatherDisplay:10.37,2013-07-07 17:51:00,
2013-07-07 13:56:00,81.5,69.9,29.95,SW,236,1.7,4.0,68,0.00,CLR,,0.09,WeatherDisplay:10.37,2013-07-07 17:56:00,
2013-07-07 14:01:00,81.7,69.7,29.95,South,186,2.3,3.5,67,0.00,CLR,,0.09,WeatherDisplay:10.37,2013-07-07 18:01:00,
2013-07-07 14:06:00,81.9,69.0,29.95,WSW,250,3.6,5.8,65,0.00,CLR,,0.09,WeatherDisplay:10.37,2013-07-07 18:06:00,
2013-07-07 14:11:00,81.8,68.9,29.95,WSW,254,2.2,3.5,65,0.00,CLR,,0.09,WeatherDisplay:10.37,2013-07-07 18:11:00,
2013-07-07 14:16:00,81.8,69.3,29.95,SSW,192,1.7,3.5,66,0.00,CLR,,0.09,WeatherDisplay:10.37,2013-07-07 18:16:00,
2013-07-07 14:21:00,81.7,68.8,29.95,West,264,2.1,3.5,65,0.00,CLR,,0.09,WeatherDisplay:10.37,2013-07-07 18:21:00,
2013-07-07 14:27:00,81.6,69.1,29.95,WSW,240,1.2,3.5,66,0.00,CLR,,0.09,WeatherDisplay:10.37,2013-07-07 18:27:00,
2013-07-07 14:32:00,81.7,70.1,29.94,WSW,238,0.1,2.3,68,0.00,CLR,,0.09,WeatherDisplay:10.37,2013-07-07 18:32:00,
2013-07-07 14:37:00,82.0,70.8,29.94,SW,226,0.4,2.3,69,0.00,CLR,,0.09,WeatherDisplay:10.37,2013-07-07 18:37:00,
2013-07-07 14:42:00,82.3,70.7,29.94,WSW,256,1.3,1.3,68,0.00,,,0.09,WeatherDisplay:10.37,2013-07-07 18:42:00,
2013-07-07 14:47:00,82.7,70.6,29.94,SW,227,0.0,1.1,67,0.00,,,0.09,WeatherDisplay:10.37,2013-07-07 18:47:00,
2013-07-07 14:53:00,83.2,71.1,29.94,SW,230,1.3,4.0,67,0.00,,,0.09,WeatherDisplay:10.37,2013-07-07 18:53:00,
2013-07-07 14:58:00,82.8,69.8,29.94,SW,230,1.1,3.0,65,0.00,,,0.09,WeatherDisplay:10.37,2013-07-07 18:58:00,
2013-07-07 15:03:00,82.5,70.4,29.94,WSW,244,2.0,3.5,67,0.00,,,0.09,WeatherDisplay:10.37,2013-07-07 19:03:00,
2013-07-07 15:08:00,82.5,70.0,29.93,WSW,242,1.2,3.5,66,0.00,,,0.09,WeatherDisplay:10.37,2013-07-07 19:08:00,
2013-07-07 15:13:00,82.5,70.4,29.93,SW,219,1.2,3.5,67,0.00,,,0.09,WeatherDisplay:10.37,2013-07-07 19:13:00,
2013-07-07 15:18:00,82.6,70.5,29.93,SSW,209,0.6,1.1,67,0.00,,,0.09,WeatherDisplay:10.37,2013-07-07 19:18:00,
2013-07-07 15:23:00,82.6,69.6,29.93,SSW,211,1.6,3.5,65,0.00,,,0.09,WeatherDisplay:10.37,2013-07-07 19:23:00,
2013-07-07 15:29:00,82.6,71.0,29.92,SSW,200,0.4,1.1,68,0.00,,,0.09,WeatherDisplay:10.37,2013-07-07 19:29:00,
2013-07-07 15:34:00,82.7,70.6,29.92,SW,214,0.7,2.3,67,0.00,,,0.09,WeatherDisplay:10.37,2013-07-07 19:34:00,
2013-07-07 15:39:00,82.9,72.5,29.92,WSW,243,0.6,1.1,71,0.00,,,0.09,WeatherDisplay:10.37,2013-07-07 19:39:00,
2013-07-07 15:44:00,82.9,69.9,29.92,SW,236,2.0,4.6,65,0.00,,,0.09,WeatherDisplay:10.37,2013-07-07 19:44:00,
2013-07-07 15:50:00,82.7,70.6,29.92,SW,225,1.8,3.5,67,0.00,,,0.09,WeatherDisplay:10.37,2013-07-07 19:50:00,
2013-07-07 15:55:00,82.7,70.6,29.91,NW,311,2.2,4.6,67,0.00,,,0.09,WeatherDisplay:10.37,2013-07-07 19:55:00,
2013-07-07 16:00:00,82.6,71.8,29.91,SW,221,1.2,3.5,70,0.00,,,0.09,WeatherDisplay:10.37,2013-07-07 20:00:00,
2013-07-07 16:05:00,82.8,71.2,29.91,WSW,244,0.8,2.3,68,0.00,,,0.09,WeatherDisplay:10.37,2013-07-07 20:05:00,
2013-07-07 16:10:00,83.4,71.7,29.90,SSW,192,1.1,3.5,68,0.00,,,0.09,WeatherDisplay:10.37,2013-07-07 20:10:00,
2013-07-07 16:15:00,84.1,72.4,29.90,SSW,194,1.0,2.3,68,0.00,,,0.09,WeatherDisplay:10.37,2013-07-07 20:15:00,
2013-07-07 16:21:00,84.4,71.8,29.90,SW,217,0.1,2.3,66,0.00,,,0.09,WeatherDisplay:10.37,2013-07-07 20:21:00,
2013-07-07 16:26:00,84.7,72.5,29.90,SSW,213,1.1,3.5,67,0.00,,,0.09,WeatherDisplay:10.37,2013-07-07 20:26:00,
2013-07-07 16:31:00,85.4,72.3,29.90,SSW,200,1.3,3.5,65,0.00,,,0.09,WeatherDisplay:10.37,2013-07-07 20:31:00,
2013-07-07 16:36:00,84.7,70.7,29.89,SSW,211,0.9,2.3,63,0.00,,,0.09,WeatherDisplay:10.37,2013-07-07 20:36:00,
2013-07-07 16:41:00,84.3,71.7,29.89,SW,214,1.0,3.5,66,0.00,,,0.09,WeatherDisplay:10.37,2013-07-07 20:41:00,
2013-07-07 16:46:00,83.6,70.6,29.89,WSW,242,2.2,4.6,65,0.00,,,0.09,WeatherDisplay:10.37,2013-07-07 20:46:00,
2013-07-07 16:51:00,83.1,71.9,29.89,WSW,237,0.7,2.0,69,0.00,,,0.09,WeatherDisplay:10.37,2013-07-07 20:51:00,
2013-07-07 16:56:00,82.5,70.4,29.89,SW,236,1.0,3.0,67,0.00,,,0.09,WeatherDisplay:10.37,2013-07-07 20:56:00,
2013-07-07 17:01:00,82.3,70.7,29.89,SW,234,1.1,3.5,68,0.00,,,0.09,WeatherDisplay:10.37,2013-07-07 21:01:00,
2013-07-07 17:07:00,82.0,70.4,29.89,West,267,1.2,3.0,68,0.00,,,0.09,WeatherDisplay:10.37,2013-07-07 21:07:00,
2013-07-07 17:12:00,82.1,70.9,29.89,SW,229,0.9,2.3,69,0.00,,,0.09,WeatherDisplay:10.37,2013-07-07 21:12:00,
2013-07-07 17:17:00,82.4,70.8,29.89,SW,219,2.1,3.5,68,0.00,,,0.09,WeatherDisplay:10.37,2013-07-07 21:17:00,
2013-07-07 17:22:00,82.3,71.5,29.89,WSW,254,0.0,0.0,70,0.00,,,0.09,WeatherDisplay:10.37,2013-07-07 21:22:00,
2013-07-07 17:27:00,82.3,71.1,29.89,WSW,240,0.7,1.1,69,0.00,,,0.09,WeatherDisplay:10.37,2013-07-07 21:27:00,
2013-07-07 17:33:00,82.0,70.8,29.89,WSW,257,0.5,2.3,69,0.00,,,0.09,WeatherDisplay:10.37,2013-07-07 21:33:00,
2013-07-07 17:38:00,81.5,71.2,29.89,WSW,246,0.0,1.1,71,0.00,,,0.09,WeatherDisplay:10.37,2013-07-07 21:38:00,
2013-07-07 17:43:00,81.4,71.1,29.89,South,187,0.0,0.0,71,0.00,,,0.09,WeatherDisplay:10.37,2013-07-07 21:43:00,
2013-07-07 17:48:00,81.2,71.3,29.89,South,188,0.0,0.0,72,0.00,,,0.09,WeatherDisplay:10.37,2013-07-07 21:48:00,
2013-07-07 17:53:00,81.1,71.2,29.89,SW,230,0.0,0.0,72,0.00,,,0.09,WeatherDisplay:10.37,2013-07-07 21:53:00,
2013-07-07 17:58:00,81.1,71.2,29.89,West,261,0.4,1.1,72,0.00,,,0.09,WeatherDisplay:10.37,2013-07-07 21:58:00,
2013-07-07 18:03:00,81.0,71.5,29.89,SW,231,0.0,0.0,73,0.00,,,0.09,WeatherDisplay:10.37,2013-07-07 22:03:00,
2013-07-07 18:09:00,80.9,71.4,29.89,WSW,239,0.0,0.0,73,0.00,,,0.09,WeatherDisplay:10.37,2013-07-07 22:09:00,
2013-07-07 18:14:00,80.8,71.3,29.89,WSW,240,0.0,0.0,73,0.00,,,0.09,WeatherDisplay:10.37,2013-07-07 22:14:00,
2013-07-07 18:19:00,80.6,71.5,29.89,WSW,240,0.0,0.0,74,0.00,,,0.09,WeatherDisplay:10.37,2013-07-07 22:19:00,
2013-07-07 18:24:00,80.6,71.9,29.89,WSW,250,0.5,4.0,75,0.00,,,0.09,WeatherDisplay:10.37,2013-07-07 22:24:00,
2013-07-07 18:30:00,80.5,71.4,29.89,SW,228,0.0,0.0,74,0.00,,,0.09,WeatherDisplay:10.37,2013-07-07 22:30:00,
2013-07-07 18:35:00,80.4,70.9,29.89,SW,233,0.1,1.1,73,0.00,,,0.09,WeatherDisplay:10.37,2013-07-07 22:35:00,
2013-07-07 18:40:00,80.2,71.2,29.89,WSW,238,0.0,0.0,74,0.00,,,0.09,WeatherDisplay:10.37,2013-07-07 22:40:00,
2013-07-07 18:45:00,80.3,70.9,29.89,WSW,238,0.3,1.1,73,0.00,,,0.09,WeatherDisplay:10.37,2013-07-07 22:45:00,
2013-07-07 18:50:00,80.3,71.3,29.89,WSW,238,0.3,1.1,74,0.00,,,0.09,WeatherDisplay:10.37,2013-07-07 22:50:00,
2013-07-07 18:55:00,80.4,71.7,29.89,WSW,238,0.0,0.0,75,0.00,,,0.09,WeatherDisplay:10.37,2013-07-07 22:55:00,
2013-07-07 19:01:00,80.4,71.7,29.89,WSW,238,0.0,0.0,75,0.00,,,0.09,WeatherDisplay:10.37,2013-07-07 23:01:00,
2013-07-07 19:06:00,80.4,72.1,29.89,WSW,238,0.0,0.0,76,0.00,,,0.09,WeatherDisplay:10.37,2013-07-07 23:06:00,
2013-07-07 19:11:00,80.3,72.0,29.89,WSW,238,0.0,0.0,76,0.00,,,0.09,WeatherDisplay:10.37,2013-07-07 23:11:00,
2013-07-07 19:16:00,80.1,71.5,29.89,WSW,242,0.0,1.1,75,0.00,,,0.09,WeatherDisplay:10.37,2013-07-07 23:16:00,
2013-07-07 19:21:00,79.8,71.2,29.89,SSW,196,0.0,0.0,75,0.00,,,0.09,WeatherDisplay:10.37,2013-07-07 23:21:00,
2013-07-07 19:26:00,79.6,71.4,29.89,SSW,196,0.0,0.0,76,0.00,,,0.09,WeatherDisplay:10.37,2013-07-07 23:26:00,
2013-07-07 19:31:00,79.5,71.3,29.90,SSW,196,0.0,0.0,76,0.00,,,0.09,WeatherDisplay:10.37,2013-07-07 23:31:00,
2013-07-07 19:37:00,79.4,71.2,29.89,SSW,197,0.0,0.0,76,0.00,,,0.09,WeatherDisplay:10.37,2013-07-07 23:37:00,
2013-07-07 19:42:00,79.2,70.6,29.90,SSW,197,0.0,1.1,75,0.00,,,0.09,WeatherDisplay:10.37,2013-07-07 23:42:00,
2013-07-07 19:47:00,79.1,70.5,29.90,SSW,197,0.0,0.0,75,0.00,,,0.09,WeatherDisplay:10.37,2013-07-07 23:47:00,
2013-07-07 19:52:00,78.9,69.5,29.90,South,190,0.0,0.0,73,0.00,,,0.09,WeatherDisplay:10.37,2013-07-07 23:52:00,
2013-07-07 19:57:00,78.7,68.9,29.90,SW,231,0.9,2.3,72,0.00,,,0.09,WeatherDisplay:10.37,2013-07-07 23:57:00,
2013-07-07 20:02:00,78.7,68.5,29.90,WSW,242,0.8,2.3,71,0.00,,,0.09,WeatherDisplay:10.37,2013-07-08 00:02:00,
2013-07-07 20:08:00,78.4,67.8,29.90,WSW,238,0.7,3.5,70,0.00,,,0.09,WeatherDisplay:10.37,2013-07-08 00:08:00,
2013-07-07 20:13:00,78.2,68.0,29.90,WSW,238,0.0,0.0,71,0.00,,,0.09,WeatherDisplay:10.37,2013-07-08 00:13:00,
2013-07-07 20:18:00,78.1,68.3,29.90,SSW,204,0.1,1.1,72,0.00,,,0.09,WeatherDisplay:10.37,2013-07-08 00:18:00,
2013-07-07 20:23:00,78.0,68.2,29.90,North,5,0.8,2.3,72,0.00,,,0.09,WeatherDisplay:10.37,2013-07-08 00:23:00,
2013-07-07 20:28:00,77.7,68.0,29.90,SW,220,0.8,3.5,72,0.00,,,0.09,WeatherDisplay:10.37,2013-07-08 00:28:00,
2013-07-07 20:33:00,77.5,67.8,29.90,West,266,0.7,3.5,72,0.00,,,0.09,WeatherDisplay:10.37,2013-07-08 00:33:00,
2013-07-07 20:39:00,77.4,68.1,29.90,WSW,237,0.1,1.1,73,0.00,,,0.09,WeatherDisplay:10.37,2013-07-08 00:39:00,
2013-07-07 20:44:00,77.3,68.0,29.90,WSW,238,0.0,1.1,73,0.00,,,0.09,WeatherDisplay:10.37,2013-07-08 00:44:00,
2013-07-07 20:49:00,77.0,68.1,29.90,WSW,245,0.0,0.0,74,0.00,,,0.09,WeatherDisplay:10.37,2013-07-08 00:49:00,
2013-07-07 20:54:00,76.8,67.9,29.90,South,184,0.4,1.1,74,0.00,,,0.09,WeatherDisplay:10.37,2013-07-08 00:54:00,
2013-07-07 20:59:00,76.6,68.1,29.90,SW,222,1.8,2.0,75,0.00,,,0.09,WeatherDisplay:10.37,2013-07-08 00:59:00,
2013-07-07 21:04:00,76.3,67.8,29.90,WSW,240,0.0,3.5,75,0.00,,,0.09,WeatherDisplay:10.37,2013-07-08 01:04:00,
2013-07-07 21:10:00,76.2,68.1,29.90,WSW,249,1.0,2.3,76,0.00,,,0.09,WeatherDisplay:10.37,2013-07-08 01:10:00,
2013-07-07 21:15:00,76.1,67.6,29.90,SSW,194,0.6,3.5,75,0.00,,,0.09,WeatherDisplay:10.37,2013-07-08 01:15:00,
2013-07-07 21:20:00,75.9,67.4,29.89,SW,236,0.6,3.5,75,0.00,,,0.09,WeatherDisplay:10.37,2013-07-08 01:20:00,
2013-07-07 21:25:00,75.8,67.3,29.90,SSW,202,0.0,3.5,75,0.00,,,0.09,WeatherDisplay:10.37,2013-07-08 01:25:00,
2013-07-07 21:30:00,75.6,67.1,29.90,WSW,238,1.9,3.5,75,0.00,,,0.09,WeatherDisplay:10.37,2013-07-08 01:30:00,
2013-07-07 21:35:00,75.5,67.4,29.90,SW,234,1.4,3.5,76,0.00,,,0.09,WeatherDisplay:10.37,2013-07-08 01:35:00,
2013-07-07 21:40:00,75.3,67.2,29.90,WSW,246,2.3,4.6,76,0.00,,,0.09,WeatherDisplay:10.37,2013-07-08 01:40:00,
2013-07-07 21:45:00,75.2,67.1,29.91,SW,224,0.0,2.3,76,0.00,,,0.09,WeatherDisplay:10.37,2013-07-08 01:45:00,
2013-07-07 21:51:00,75.2,67.5,29.91,SSW,209,0.6,2.3,77,0.00,,,0.09,WeatherDisplay:10.37,2013-07-08 01:51:00,
2013-07-07 21:56:00,75.0,67.3,29.91,WSW,238,1.0,4.6,77,0.00,,,0.09,WeatherDisplay:10.37,2013-07-08 01:56:00,
2013-07-07 22:01:00,74.9,67.2,29.92,SW,226,0.7,2.3,77,0.00,,,0.09,WeatherDisplay:10.37,2013-07-08 02:01:00,
2013-07-07 22:06:00,74.8,67.5,29.92,SW,235,0.4,1.1,78,0.00,,,0.09,WeatherDisplay:10.37,2013-07-08 02:06:00,
2013-07-07 22:11:00,74.7,67.4,29.93,SW,223,0.1,2.3,78,0.00,,,0.09,WeatherDisplay:10.37,2013-07-08 02:11:00,
2013-07-07 22:17:00,74.6,67.3,29.93,SW,223,0.0,0.0,78,0.00,,,0.09,WeatherDisplay:10.37,2013-07-08 02:17:00,
2013-07-07 22:22:00,74.5,67.6,29.93,SW,218,0.0,0.0,79,0.00,,,0.09,WeatherDisplay:10.37,2013-07-08 02:22:00,
2013-07-07 22:27:00,74.4,67.5,29.93,South,184,1.8,3.5,79,0.00,,,0.09,WeatherDisplay:10.37,2013-07-08 02:27:00,
2013-07-07 22:32:00,74.3,67.4,29.93,SSW,210,1.3,2.3,79,0.00,,,0.09,WeatherDisplay:10.37,2013-07-08 02:32:00,
2013-07-07 22:37:00,74.2,67.3,29.93,SW,218,0.7,2.3,79,0.00,,,0.09,WeatherDisplay:10.37,2013-07-08 02:37:00,
2013-07-07 22:42:00,74.1,67.2,29.93,SSW,202,0.9,2.3,79,0.00,,,0.09,WeatherDisplay:10.37,2013-07-08 02:42:00,
2013-07-07 22:48:00,74.0,67.1,29.93,SW,217,0.3,2.3,79,0.00,,,0.09,WeatherDisplay:10.37,2013-07-08 02:48:00,
2013-07-07 22:53:00,73.9,67.0,29.93,WSW,241,0.2,1.1,79,0.00,,,0.09,WeatherDisplay:10.37,2013-07-08 02:53:00,
2013-07-07 22:58:00,73.8,67.2,29.93,WSW,242,0.0,1.1,80,0.00,,,0.09,WeatherDisplay:10.37,2013-07-08 02:58:00,
2013-07-07 23:03:00,73.7,67.1,29.93,SSW,209,0.1,1.0,80,0.00,,,0.09,WeatherDisplay:10.37,2013-07-08 03:03:00,
2013-07-07 23:08:00,73.6,67.0,29.93,SSW,209,0.0,1.1,80,0.00,,,0.09,WeatherDisplay:10.37,2013-07-08 03:08:00,
2013-07-07 23:13:00,73.5,66.9,29.93,SSW,209,0.1,1.1,80,0.00,,,0.09,WeatherDisplay:10.37,2013-07-08 03:13:00,
2013-07-07 23:18:00,73.4,66.9,29.93,WSW,254,0.3,1.1,80,0.00,,,0.09,WeatherDisplay:10.37,2013-07-08 03:18:00,
2013-07-07 23:24:00,73.4,66.9,29.93,WSW,240,0.0,0.0,80,0.00,,,0.09,WeatherDisplay:10.37,2013-07-08 03:24:00,
2013-07-07 23:29:00,73.3,66.8,29.93,WSW,240,0.0,0.0,80,0.00,,,0.09,WeatherDisplay:10.37,2013-07-08 03:29:00,
2013-07-07 23:34:00,73.2,66.7,29.93,WSW,240,0.0,0.0,80,0.00,,,0.09,WeatherDisplay:10.37,2013-07-08 03:34:00,
2013-07-07 23:39:00,73.2,66.7,29.93,WSW,240,0.0,0.0,80,0.00,,,0.09,WeatherDisplay:10.37,2013-07-08 03:39:00,
2013-07-07 23:44:00,73.0,66.5,29.93,WSW,240,0.0,0.0,80,0.00,,,0.09,WeatherDisplay:10.37,2013-07-08 03:44:00,
2013-07-07 23:49:00,72.9,66.4,29.93,WSW,240,0.0,1.1,80,0.00,,,0.09,WeatherDisplay:10.37,2013-07-08 03:49:00,
2013-07-07 23:55:00,72.8,66.3,29.93,WSW,240,0.0,0.0,80,0.00,,,0.09,WeatherDisplay:10.37,2013-07-08 03:55:00,